TimeEDT,TemperatureF,Dew PointF,Humidity,Sea Level PressureIn,VisibilityMPH,Wind Direction,Wind SpeedMPH,Gust SpeedMPH,PrecipitationIn,Events,Conditions,WindDirDegrees,DateUTC
12:53 AM,39.0,32.0,76,30.30,10.0,SSE,3.5,-,N/A,,Clear,160,2013-03-11 04:53:00
1:53 AM,37.9,32.0,79,30.27,10.0,Calm,Calm,-,N/A,,Clear,0,2013-03-11 05:53:00
2:53 AM,37.0,32.0,82,30.26,9.0,SSE,5.8,-,N/A,,Clear,160,2013-03-11 06:53:00
3:53 AM,36.0,32.0,86,30.25,9.0,SSE,3.5,-,N/A,,Scattered Clouds,160,2013-03-11 07:53:00
4:08 AM,37.4,32.0,81,30.25,8.0,Calm,Calm,-,N/A,,Mostly Cloudy,0,2013-03-11 08:08:00
4:53 AM,35.1,30.9,85,30.25,8.0,Calm,Calm,-,N/A,,Overcast,0,2013-03-11 08:53:00
5:53 AM,37.0,33.1,86,30.23,9.0,Calm,Calm,-,N/A,,Overcast,0,2013-03-11 09:53:00
6:53 AM,36.0,32.0,86,30.23,7.0,Calm,Calm,-,N/A,,Overcast,0,2013-03-11 10:53:00
7:12 AM,37.4,33.8,87,30.23,7.0,Calm,Calm,-,N/A,,Overcast,0,2013-03-11 11:12:00
7:53 AM,37.0,34.0,89,30.22,5.0,Calm,Calm,-,N/A,,Overcast,0,2013-03-11 11:53:00
8:53 AM,39.9,36.0,86,30.23,7.0,Calm,Calm,-,N/A,,Overcast,0,2013-03-11 12:53:00
9:53 AM,42.1,37.9,85,30.24,8.0,SW,3.5,-,N/A,,Overcast,220,2013-03-11 13:53:00
10:53 AM,46.0,37.9,73,30.22,10.0,South,8.1,-,N/A,,Overcast,170,2013-03-11 14:53:00
11:00 AM,46.4,37.4,71,30.23,10.0,SSE,9.2,-,N/A,,Mostly Cloudy,160,2013-03-11 15:00:00
11:28 AM,46.4,37.4,71,30.21,10.0,South,8.1,-,N/A,,Scattered Clouds,170,2013-03-11 15:28:00
11:53 AM,46.9,37.9,71,30.20,10.0,South,5.8,-,N/A,,Partly Cloudy,180,2013-03-11 15:53:00
12:53 PM,48.9,37.9,66,30.20,10.0,Variable,6.9,-,N/A,,Scattered Clouds,0,2013-03-11 16:53:00
1:53 PM,50.0,37.9,63,30.16,10.0,Variable,3.5,-,N/A,,Scattered Clouds,0,2013-03-11 17:53:00
2:53 PM,53.1,37.9,57,30.14,10.0,SSE,6.9,-,N/A,,Clear,150,2013-03-11 18:53:00
3:53 PM,55.0,37.9,53,30.12,10.0,Variable,6.9,-,N/A,,Clear,0,2013-03-11 19:53:00
4:53 PM,54.0,37.9,55,30.09,10.0,South,5.8,16.1,N/A,,Clear,170,2013-03-11 20:53:00
5:53 PM,52.0,37.9,59,30.10,10.0,South,12.7,18.4,N/A,,Overcast,180,2013-03-11 21:53:00
7:53 PM,50.0,41.0,71,30.10,10.0,SSE,6.9,17.3,N/A,,Clear,160,2013-03-11 23:53:00
8:53 PM,48.9,41.0,74,30.10,10.0,SE,8.1,-,N/A,,Clear,140,2013-03-12 00:53:00
9:25 PM,48.2,42.8,82,30.09,10.0,SE,6.9,-,N/A,,Mostly Cloudy,140,2013-03-12 01:25:00
9:53 PM,50.0,42.1,74,30.09,10.0,SE,6.9,-,N/A,,Overcast,130,2013-03-12 01:53:00
10:41 PM,50.0,44.6,82,30.09,10.0,Variable,3.5,-,N/A,,Overcast,0,2013-03-12 02:41:00
10:53 PM,50.0,44.1,80,30.09,10.0,Variable,3.5,-,N/A,,Overcast,0,2013-03-12 02:53:00